Погода Пономарёво

Погода Пономарёво : погода сейчас, прогноз погоды и архив. Всё, что Вы хотите узнать о погоде Пономарёво!

Поиск расширенной информации на нашем сайте:

Другие новости

Новости СМИ2

Главная страница сайта

Новости сайта

03.07.2017

Напоминаем, что на нашем специализированном сайте Метеоцентр.Азия вы можете получить высокодетализированные автоматические прогнозы погоды по пунктам России, СНГ и мира в авиационном формате (включающие направление и скорость ветра, видимость, явления погоды, количество и форму облачности, нижнюю и верхнюю границу облачности).


Погода Пономарёво - сегодня

Время (UTC), дата Ветер
(°,м/с) 
Видим.   Явления Облачность Т
(°С)
Тd
(°С)
f(%) Тe
(°С)
Pmin
(гПа)
dP
(гПа)
Po
(мм)
O2
(г/м3)
Тmin Tmax R s Состояние
почвы
21 19.04.18 260 (З) н/о    9/4 600 м кучево-дожд., верхняя 
[Cb cap|Ci sp]
-0.4 -2.2 88 1016.8  -1.8  722  291           
00 20.04.18 290 (З) 4000 м  слаб. снег  10/0 средняя 
[Ac As]
+0.1 -1 92 +1  1017.5  0.8  722  291  -0.4    0.0  11  мокрый или
старый снег
50-90% 
09 20.04.18 240 (ЮЗ) 20000 м    9/9 600 м кучево-дожд. 
[Cb cap]
+4.5 -2.9 59 +5  1023.1  0.2  727  288           
12 20.04.18 тихо ()   20000 м    8/8 1000 м 
[Sc diur, vesp]
+3.5 -2.5 65 +4  1024.3  0.9  727  290    +6.3  0.6     
15 20.04.18 тихо ()   н/о    ясно 
-2.1 -4.3 85 -2  1026.2  0.7  728  296           
18 20.04.18 160 (Ю) н/о    ясно 
-1.9 -4.7 81 -1  1026.4  0.2  728  296           
03 21.04.18 270 (З) 20000 м    3/0 верхняя 
[Ci fib]
+6 -3.3 51 +7  1024.8  728  287           
06 21.04.18 270 (З) 20000 м    9/0 верхняя 
[Ci]
+12 -2.4 37 +13  1022.6  -1  727  281           
09 21.04.18 250 (З) 20000 м    9/0 верхняя 
[Ci]
+14.8 -5 25 +16  1020.2  -1.9  726  278           
12 21.04.18 тихо ()   20000 м    10/0 средняя 
[Ac As]
+7.5 -3.3 46 +8  1021.6  726  285    +15.5       
15 21.04.18 тихо ()   н/о    9/0 верхняя 
[Ci sp]
+2.4 -0.9 79 +2  1022  -0.6  726  290           
18 21.04.18 тихо ()   н/о    9/0 верхняя 
[Ci sp]
+0.8 -2.1 81 +1  1021.7  -0.5  725  292           
21 21.04.18 тихо ()   н/о    9/0 верхняя 
[Ci fib]
-0.9 -2.5 89 -1  1021.9  -0.1  725  293           
03 22.04.18 160 (Ю) 20000 м    4/0 верхняя 
[Ci fib]
+12.2 -0.6 41 +13  1019.4  -0.9  725  280           
06 22.04.18 250 (З) 20000 м    3/0 верхняя 
[Ci fib]
+18.7 -0.7 27 +20  1016.7  -1.6  724  273           
09 22.04.18 220 (ЮЗ) 20000 м    9/0 верхняя 
[Ci fib]
+20.5 -1.4 23 +21  1014.4  -1.8  723  271           
12 22.04.18 070 (В) 20000 м    9/6 1000 м средняя 
[Sc|Ac und]
+13.6 -1.8 34 +15  1014  -1.6  721  277    +21.5       
15 22.04.18 тихо ()   н/о    9/0 средняя, верхняя 
[Ac trans|Ci fib]
+5.2 +0.6 72 +5  1015.8  0.3  722  285           
18 22.04.18 тихо ()   н/о    9/0 средняя, верхняя 
[Ac trans|Ci fib]
+1.2 -2.3 77 +1  1017.8  1.1  722  290           
21 22.04.18 тихо ()   н/о    9/0 средняя, верхняя 
[Ac trans|Ci sp]
+1.8 -1.6 78 +2  1019.1  1.3  723  290           
00 23.04.18 260 (З) 20000 м    9/0 средняя, верхняя 
[Ac und|Ci fib]
+3.5 -1.2 71 +4  1020.3  1.5  725  288  +1      <0.5  мокрый или
старый снег
50-90% 
03 23.04.18 270 (З) 20000 м    8/0 средняя 
[Ac und]
+8.6 +0.7 58 +10  1019.5  0.1  725  283           
06 23.04.18 230 (ЮЗ) 20000 м    8/0 средняя 
[Ac und]
+14 +2.5 46 +15  1016.4  -0.9  724  277           
09 23.04.18 тихо ()   20000 м    10/0 средняя 
[Ac As]
+16 +4.8 47 +16  1014.9  -2.1  722  274           
12 23.04.18 тихо ()   20000 м    10/0 средняя 
[Ac As]
+12.5 +6.4 66 +13  1014.5  -0.8  722  277    +18.5       
Время (UTC), дата Ветер
(°,м/с) 
Видим.   Явления Облачность Т
(°С)
Тd
(°С)
f(%) Тe
(°С)
Pmin
(гПа)
dP
(гПа)
Po
(мм)
O2
(г/м3)
Тmin Tmax R s Состояние
почвы

Для получения пояснительной информации подведите курсор к названию столбца.

ПОГОДА Пономарёво - архив

Всё, что Вы хотите узнать о погоде Пономарёво - удобно и подробно!

Выберите нужную дату (начиная с 1 января 2015* года) и нажмите кнопку "Найти".
Будут отображены архивные сводки погоды по пункту Пономарёво, начиная с указанной даты.


Отображать данные в формате CSV (для использования в таблицах Excel)


Внимание! Наш архив погоды предназначен исключительно для личного некоммерческого использования в познавательных целях. Если Вам необходимы официальные справки о состоянии погоды (для производственных, юридических, коммерческих и т.п. целей), обращайтесь в органы Росгидромета.

*Примечание: данная дата относится к архиву по метеостанциям СССР (Россия, СНГ, Балтия).
Архив по метеостанциям Зарубежной Европы и Азии (кроме Китая) хранится 10 дней, по другим регионам земного шара (Китай, Африка, Америка, Австралия, Океания) - 1 день.

Пономарёво - район местоположения метеостанции


Название, широта, долгота, высота метеостанции:
Пономарёво 53.7°ш. 94.2°д. 445 м над ур. моря [Российская Федерация]

Дополнительная информация

В oтличие oт бoльшинства пoгoдных сайтoв мы публикуем пoдрoбную метеoинфoрмацию в детальнoм прoфессиoнальнoм фoрмате.

Характеристики температуры и влажнoсти вoздуха измеряются на высoте 2 м в тени вдали oт зданий и деревьев.
Скoрoсть ветра измеряется на высoте 10 м (на урoвне рoста челoвека скoрoсть ветра ниже в 1.5-2 раза). Если метеoстанция нахoдится в гoрoде или в лесу, тo скoрoсть ветра занижена на 2-4 м/с пo сравнению с oткрытым местoм. Скoрoсть ветра над акватoриями крупных рек и oзёр, а также на вершинах хoлмoв на 2-5 м/с выше, чем в oбычных услoвиях.
Атмoсфернoе давление в разных тoчках местнoсти мoжет значительнo oтличаться oт давления на метеoстанции, в зависимoсти oт услoвий рельефа (при пoдъёме на 10 м давление пoнижается примернo на 1 мм рт.ст.).